Paynesville, MN

2:23 AM CST on January 24, 2017 (GMT -0600)
Paynesville

Weather History for KPEX - April, 2014

Change the Weather History Date:

Tuesday, April 15, 2014

  Actual Average (KLJF) Record (KLJF)
Temperature  
Mean Temperature 24 °F -  
Max Temperature 34 °F 59 °F 84 °F (2002)
Min Temperature 14 °F 34 °F 15 °F (2014)
Degree Days  
Heating Degree Days 41    
Moisture  
Dew Point 7 °F    
Average Humidity 49    
Maximum Humidity 80    
Minimum Humidity 28    
Precipitation  
Precipitation 0.00 in - - ()
Sea Level Pressure  
Sea Level Pressure 30.10 in    
Wind  
Wind Speed 6 mph (ENE)    
Max Wind Speed 13 mph    
Max Gust Speed 20 mph    
Visibility 10 miles    
Events      
Averages and records for this station are not official NWS values.
T = Trace of Precipitation, MM = Missing Value Source: NWS Daily Summary

Daily Weather History Graph

Daily Weather History Graph

Search for Another Location

Airport or City:

Trip Planner

Search our weather history database for the weather conditions in past years. The results will help you decide how hot, cold, wet, or windy it might be!

Date:

Astronomy

Apr. 15, 2014 Rise Set
Actual Time 6:33 AM CDT 8:05 PM CDT
Civil Twilight 6:02 AM CDT 8:36 PM CDT
Nautical Twilight 5:25 AM CDT 9:13 PM CDT
Astronomical Twilight 4:45 AM CDT 9:54 PM CDT
Moon 8:49 PM CDT (4/15) 6:41 AM CDT (4/15)
Length of Visible Light 14h 33m
Length of Day
13h 31m
Full, 100% of the Moon is Illuminated
Apr 15
Full
Apr 22
Last Quarter
Apr 29
New
May 6
First Quarter
May 14
Full

Hourly Weather History & Observations

Time (CDT) Temp. Windchill Dew Point Humidity Pressure Visibility Wind Dir Wind Speed Gust Speed Precip Events Conditions
12:12 AM 20.8 °F 11.2 °F 8.4 °F 59% 30.16 in 10.0 mi NW 8.1 mph - N/A   Clear
12:32 AM 20.3 °F 7.7 °F 6.6 °F 56% 30.16 in 10.0 mi NNW 12.7 mph 19.6 mph N/A   Clear
12:52 AM 19.9 °F 7.9 °F 5.5 °F 54% 30.16 in 10.0 mi NNW 11.5 mph 18.4 mph N/A   Clear
1:11 AM 19.4 °F 6.6 °F 6.6 °F 58% 30.16 in 10.0 mi NNW 12.7 mph - N/A   Clear
1:32 AM 19.2 °F 7.7 °F 6.4 °F 58% 30.16 in 10.0 mi NNW 10.4 mph 16.1 mph N/A   Clear
1:52 AM 19.0 °F 9.0 °F 6.8 °F 59% 30.16 in 10.0 mi NNW 8.1 mph - N/A   Clear
2:12 AM 18.5 °F 8.4 °F 7.0 °F 61% 30.16 in 10.0 mi NNW 8.1 mph - N/A   Clear
2:32 AM 18.3 °F - 7.7 °F 63% 30.16 in 10.0 mi Calm Calm - N/A   Clear
2:52 AM 18.0 °F 8.7 °F 7.7 °F 64% 30.16 in 10.0 mi NNW 6.9 mph - N/A   Clear
3:12 AM 17.6 °F 6.4 °F 7.7 °F 65% 30.16 in 10.0 mi NNW 9.2 mph - N/A   Clear
3:32 AM 17.2 °F 7.8 °F 7.7 °F 66% 30.15 in 10.0 mi NNW 6.9 mph - N/A   Clear
3:52 AM 16.7 °F 8.3 °F 7.7 °F 68% 30.15 in 10.0 mi NNW 5.8 mph - N/A   Clear
4:11 AM 16.5 °F - 8.6 °F 71% 30.16 in 10.0 mi Calm Calm - N/A   Clear
4:32 AM 16.3 °F - 8.4 °F 71% 30.15 in 10.0 mi Calm Calm - N/A   Clear
4:52 AM 16.0 °F - 8.6 °F 73% 30.15 in 10.0 mi Calm Calm - N/A   Clear
5:12 AM 15.6 °F - 9.0 °F 75% 30.15 in 10.0 mi Calm Calm - N/A   Clear
5:32 AM 15.4 °F - 9.1 °F 76% 30.15 in 10.0 mi Calm Calm - N/A   Clear
5:52 AM 15.3 °F - 8.8 °F 76% 30.14 in 10.0 mi Calm Calm - N/A   Clear
6:12 AM 14.4 °F - 8.8 °F 79% 30.14 in 10.0 mi Calm Calm - N/A   Clear
6:32 AM 14.4 °F - 9.1 °F 80% 30.14 in 10.0 mi Calm Calm - N/A   Clear
6:51 AM 14.7 °F - 9.3 °F 79% 30.15 in 10.0 mi Calm Calm - N/A   Clear
7:12 AM 15.4 °F - 9.3 °F 77% 30.16 in 10.0 mi Calm Calm - N/A   Clear
7:32 AM 16.0 °F - 9.3 °F 75% 30.16 in 10.0 mi Calm Calm - N/A   Clear
7:52 AM 16.7 °F 7.2 °F 9.0 °F 72% 30.16 in 10.0 mi NNW 6.9 mph - N/A   Clear
8:12 AM 17.6 °F - 8.8 °F 68% 30.17 in 10.0 mi Calm Calm - N/A   Clear
8:32 AM 18.1 °F 11.3 °F 8.4 °F 66% 30.17 in 10.0 mi NW 4.6 mph - N/A   Clear
8:52 AM 18.5 °F - 8.1 °F 64% 30.18 in 10.0 mi Calm Calm - N/A   Clear
9:12 AM 19.0 °F 11.1 °F 8.2 °F 63% 30.18 in 10.0 mi West 5.8 mph - N/A   Clear
9:33 AM 19.6 °F - 8.2 °F 61% 30.17 in 10.0 mi Calm Calm - N/A   Clear
9:52 AM 20.7 °F - 8.2 °F 59% 30.17 in 10.0 mi Calm Calm - N/A   Clear
10:12 AM 21.7 °F 12.3 °F 8.4 °F 57% 30.17 in 10.0 mi West 8.1 mph - N/A   Clear
10:32 AM 21.7 °F 17.0 °F 6.3 °F 51% 30.16 in 10.0 mi NW 3.5 mph - N/A   Clear
10:52 AM 22.5 °F 14.1 °F 5.9 °F 49% 30.15 in 10.0 mi NNW 6.9 mph - N/A   Clear
11:12 AM 24.1 °F - 6.3 °F 47% 30.15 in 10.0 mi Calm Calm - N/A   Clear
11:53 AM 25.2 °F 19.5 °F 5.5 °F 43% 30.13 in 10.0 mi West 4.6 mph - N/A   Clear
12:12 PM 25.9 °F - 4.8 °F 41% 30.11 in 10.0 mi Calm Calm - N/A   Scattered Clouds
12:32 PM 27.9 °F 24.0 °F 7.5 °F 42% 30.10 in 10.0 mi ESE 3.5 mph - N/A   Scattered Clouds
12:52 PM 27.3 °F - 4.6 °F 38% 30.10 in 10.0 mi Calm Calm - N/A   Clear
1:12 PM 28.9 °F - 3.6 °F 34% 30.09 in 10.0 mi Calm Calm - N/A   Clear
1:32 PM 29.7 °F - 5.0 °F 35% 30.09 in 10.0 mi Calm Calm - N/A   Clear
1:52 PM 31.1 °F 23.7 °F 4.6 °F 33% 30.08 in 10.0 mi NW 8.1 mph - N/A   Scattered Clouds
2:11 PM 31.3 °F - 2.8 °F 30% 30.07 in 10.0 mi Calm Calm - N/A   Clear
2:32 PM 31.6 °F - 2.3 °F 29% 30.06 in 10.0 mi Calm Calm - N/A   Clear
2:52 PM 31.5 °F 25.8 °F 4.1 °F 31% 30.05 in 10.0 mi SSE 5.8 mph - N/A   Clear
3:12 PM 32.0 °F 24.8 °F 5.7 °F 33% 30.05 in 10.0 mi ESE 8.1 mph - N/A   Clear
3:32 PM 32.0 °F 27.5 °F 5.7 °F 33% 30.05 in 10.0 mi SSE 4.6 mph - N/A   Scattered Clouds
3:52 PM 32.5 °F - 5.0 °F 31% 30.04 in 10.0 mi Calm Calm - N/A   Scattered Clouds
4:12 PM 33.1 °F 25.5 °F 4.5 °F 30% 30.03 in 10.0 mi ESE 9.2 mph - N/A   Scattered Clouds
4:32 PM 32.9 °F - 3.4 °F 29% 30.03 in 10.0 mi Calm Calm - N/A   Mostly Cloudy
4:52 PM 33.1 °F 26.9 °F 4.1 °F 29% 30.02 in 10.0 mi SE 6.9 mph - N/A   Overcast
5:12 PM 33.8 °F 29.6 °F 5.2 °F 30% 30.03 in 10.0 mi SSE 4.6 mph - N/A   Overcast
5:32 PM 34.2 °F 30.0 °F 5.9 °F 31% 30.02 in 10.0 mi South 4.6 mph - N/A   Overcast
5:51 PM 34.0 °F 28.0 °F 3.9 °F 28% 30.02 in 10.0 mi SE 6.9 mph - N/A   Overcast
6:12 PM 33.8 °F 27.7 °F 4.5 °F 29% 30.01 in 10.0 mi SE 6.9 mph - N/A   Overcast
6:32 PM 33.4 °F - 4.6 °F 30% 30.01 in 10.0 mi Calm Calm - N/A   Overcast
6:52 PM 33.1 °F - 3.7 °F 29% 30.01 in 10.0 mi Calm Calm - N/A   Overcast
7:12 PM 33.3 °F - 5.4 °F 31% 30.02 in 10.0 mi Calm Calm - N/A   Overcast
7:32 PM 32.9 °F 26.7 °F 7.3 °F 34% 30.02 in 10.0 mi SE 6.9 mph - N/A   Overcast
7:52 PM 32.9 °F - 7.3 °F 34% 30.02 in 10.0 mi Calm Calm - N/A   Overcast
8:12 PM 32.4 °F 26.0 °F 6.1 °F 33% 30.01 in 10.0 mi East 6.9 mph - N/A   Overcast
8:32 PM 32.2 °F 25.0 °F 6.6 °F 34% 30.02 in 10.0 mi East 8.1 mph - N/A   Overcast
8:52 PM 32.0 °F 24.2 °F 7.0 °F 35% 30.02 in 10.0 mi East 9.2 mph - N/A   Overcast
9:12 PM 32.0 °F 24.2 °F 7.2 °F 35% 30.02 in 10.0 mi East 9.2 mph - N/A   Overcast
9:32 PM 32.0 °F 23.0 °F 7.7 °F 36% 30.02 in 10.0 mi East 11.5 mph - N/A   Overcast
9:52 PM 32.2 °F 23.2 °F 8.4 °F 37% 30.02 in 10.0 mi East 11.5 mph - N/A   Overcast
10:12 PM 32.0 °F 23.6 °F 9.1 °F 38% 30.01 in 10.0 mi East 10.4 mph - N/A   Overcast
10:32 PM 32.0 °F 23.0 °F 9.7 °F 39% 30.01 in 10.0 mi East 11.5 mph - N/A   Overcast
10:52 PM 32.0 °F 24.2 °F 10.0 °F 40% 30.01 in 10.0 mi East 9.2 mph - N/A   Overcast
11:12 PM 32.0 °F 24.2 °F 10.2 °F 40% 30.00 in 10.0 mi East 9.2 mph - N/A   Overcast
11:32 PM 32.0 °F 23.6 °F 10.4 °F 41% 30.00 in 10.0 mi East 10.4 mph - N/A   Overcast
11:52 PM 32.0 °F 22.5 °F 10.4 °F 41% 30.00 in 10.0 mi East 12.7 mph - N/A   Overcast